PSLV DEB, 41792

Orbit data source: Space-Track

PSLV DEB, 41792 is space debris in SSO originally from a launch on Mon, 26 Sep 2016 UTC launched from the Sirharikota (SRI). Debris objects in space refer to the collection of defunct objects orbiting the Earth. Examples of debris include non-operational satellites, rocket bodies, and fragments generated from explosions, collisions, or faulty payload assembly.

Loading next visibility...
Identifier
41792, 2016-059K
Orbit
SSO
Country
Flag of ININ / IND
Related business
Manufacturer
VSSC/LPSC
Mission
Spacecraft
Bus & Motor
Unknown
Mass
Unknown
Launch date (UTC)
2016-09-26 (9 years ago)
Launch vehicle
Unknown
Launch site
Sirharikota (SRI)
Object type
Payload
Rocket body
Debris
Shape & HBR
Cone + Cyl, 1.5 m
Radar Cross Section
7.069 m², Large (>1 m²)

Expand to show TLE details & history
Last TLE update: 18 hours ago

TLE from 18 hours ago
0 PSLV DEB
1 41792U 16059K   25258.02495008  .00002660  00000-0  38071-3 0  9990
2 41792  97.8034 283.1860 0020646 328.2974  31.6992 14.77288484480215
Epoch: 2025-09-15T00:35Z
TLE epoch observation values (Epoch: 2025-09-15T00:35:55.686Z)
Latitude
-0.00006°
Longitude
-80.03155°
Altitude
628.598 km
Speed
7.551 km/s
True Right ascension
18h 52m 44s
True Declination
0° 00' 00"
Sunlit
Object was in daylight at epoch
Visualization orbit readout
Latitude
Unknown
Longitude
Unknown
Altitude
Unknown
Speed
Unknown
Apparent Right ascension
Unknown
Apparent Declination
Unknown
Sunlit
N/A
Visualization observer readout
Local Sidereal Time
11:11:40
Azimuth
Unknown
Elevation
Unknown
Doppler factor
Unknown
Orbital elements
Apogee altitude
649.416 km
Perigee altitude
620.457 km
Semi-major axis
7,013.073 km
Eccentricity
0.00206
Inclination
97.8034°
RAAN
283.186°
Arg. of periapsis
328.2974°
True anomaly
31.82379°
Mean anomaly
31.6992°
Eccentric anomaly
31.76147°
Mean motion
3.69556 °/min
Orbital period
97.41 mins
BSTAR
0.00038071
Loading maneuver chart data...
Computing Atmospheric mass density...
Loading historical data...
Loading historical data...
Loading historical data...
Loading historical data...
Loading historical data...
Loading historical data...
Loading historical data...

Documentation

Showing up to 5 results
|